Theta_e
298 291 290 292 299 299 304 306 306 304 309 314 320 327 329 332 334 336 341 346 349 359 360 362 362 360 359 359 359 359 359 359
295 293 297 298 301 301 303 306 305 305 305 319 328 331 333 334 335 338 342 344 352 357 359 360 361 360 359 359 359 359 359 359
292 295 299 302 303 302 302 302 304 305 305 309 325 336 336 332 336 335 341 342 350 356 357 359 360 360 359 359 358 359 359 359
292 295 301 303 305 302 301 303 307 304 305 311 330 334 334 333 331 335 338 341 348 355 356 357 358 359 358 358 358 358 359 359
295 297 300 304 307 303 303 303 307 307 304 315 331 335 332 330 329 333 336 340 346 349 353 356 356 357 357 357 357 357 357 357
298 299 299 307 308 305 306 309 312 311 305 307 322 336 331 329 328 331 335 340 343 346 348 347 348 355 357 357 357 357 357 357
299 300 301 308 306 309 313 309 312 311 312 319 333 334 331 331 333 335 337 338 342 344 345 344 344 349 354 355 356 356 356 356
307 307 305 309 307 309 309 310 310 311 315 319 327 330 329 325 325 330 333 335 341 342 343 342 345 343 344 344 346 347 347 347
306 306 307 306 306 310 308 306 309 309 311 313 316 320 325 328 328 329 333 336 338 340 341 341 340 342 343 342 340 341 339 339
300 303 304 303 306 305 307 308 313 313 314 313 314 315 320 323 323 331 335 336 336 337 339 338 337 340 341 340 340 338 338 336
298 298 298 300 299 300 301 306 309 310 312 313 313 315 318 318 319 325 335 337 338 335 335 335 333 336 337 336 337 337 336 336
296 296 297 297 299 301 303 307 307 307 307 310 312 315 313 317 320 322 332 339 341 337 334 331 330 331 333 334 334 333 335 336
294 296 295 299 294 296 303 305 304 306 307 309 312 314 313 315 318 324 324 338 342 340 338 334 331 332 331 332 332 332 333 334
289 293 295 296 290 298 302 302 303 303 305 307 307 312 313 314 317 321 323 330 341 343 339 335 333 334 335 336 335 334 334 335
287 293 293 292 288 296 299 299 299 300 301 303 302 305 311 314 317 317 322 326 332 340 338 336 334 335 336 337 337 337 336 336
285 290 292 290 291 295 298 298 298 298 299 301 302 303 306 309 314 317 320 323 327 332 338 338 338 338 338 339 339 338 338 338
289 292 290 289 290 294 296 295 295 297 298 299 300 304 305 306 310 314 318 320 323 327 330 339 338 336 337 337 339 337 338 339
289 294 292 290 290 294 295 294 295 296 297 298 299 300 303 305 306 308 311 320 321 326 332 335 337 337 335 338 333 338 338 338
287 291 292 289 287 289 292 294 296 295 296 297 297 298 300 302 302 303 307 311 320 324 332 338 339 333 328 330 331 330 329 331
289 286 280 289 279 286 289 290 292 294 293 295 296 297 299 300 301 302 304 309 316 321 329 338 340 334 331 332 332 331 330 330
Wind_Speed
3 4 8 4 4 4 8 9 6 7 7 6 6 3 14 5 15 18 19 17 17 23 22 21 20 20 21 20 20 19 18 16
2 13 5 3 6 6 12 12 4 5 7 9 2 7 9 18 19 20 15 16 19 23 21 20 20 20 21 20 19 19 18 17
3 13 2 3 3 4 8 6 8 7 8 6 4 5 14 21 21 22 18 14 17 23 21 20 20 20 21 21 20 19 18 18
7 19 1 3 3 3 2 6 15 6 7 6 3 7 13 19 21 20 19 17 16 20 21 20 20 20 21 21 21 20 19 18
5 9 2 2 3 2 2 6 8 8 7 9 1 8 7 4 6 10 13 14 13 14 15 18 18 18 19 21 21 21 20 19
5 9 3 1 4 5 1 8 7 6 6 10 3 8 10 9 7 8 5 8 9 10 9 9 9 16 16 19 20 20 20 19
5 4 3 4 6 2 4 3 6 7 4 8 4 10 9 9 5 5 5 5 7 9 8 7 6 10 13 17 17 17 17 19
4 3 6 10 4 9 7 14 6 10 9 7 7 7 4 9 11 7 8 7 9 10 9 7 7 6 6 6 6 7 8 10
5 5 6 11 10 10 8 15 5 11 10 9 4 2 3 4 9 19 13 8 11 11 9 11 9 5 4 4 3 4 6 6
2 7 9 13 11 14 17 20 7 8 10 6 7 5 3 6 4 6 10 15 13 12 12 11 6 7 7 6 5 5 6 6
7 6 7 11 14 15 24 17 12 9 9 8 8 9 6 5 5 8 8 9 14 13 14 13 11 8 8 8 7 7 5 6
4 6 5 7 13 5 33 4 9 8 8 9 9 9 6 7 7 5 11 14 10 15 12 10 12 9 8 8 7 6 6 7
5 4 6 7 13 21 18 10 9 12 6 8 9 9 9 9 7 11 9 10 14 13 13 13 11 8 7 6 6 7 7 8
5 5 6 6 16 10 6 8 15 11 8 8 9 10 9 9 9 9 6 8 11 13 13 14 13 9 8 7 7 7 6 7
6 6 5 4 4 7 12 6 9 13 13 7 6 8 10 7 9 8 9 10 9 12 14 15 12 8 9 9 8 7 5 6
6 6 7 12 15 7 7 8 9 7 12 17 11 8 6 8 6 10 9 9 8 7 12 15 11 8 4 4 6 5 8 9
6 7 7 11 18 14 7 5 7 8 10 9 17 14 5 7 8 6 8 10 9 8 9 8 8 7 5 9 8 6 7 10
6 6 10 9 23 18 12 6 7 7 8 10 9 13 22 11 7 8 7 11 10 10 10 7 6 8 5 8 4 7 6 6
7 7 8 8 23 10 4 3 5 6 6 6 8 11 13 15 13 10 10 8 12 14 14 13 15 3 1 3 2 3 3 4
9 6 3 3 16 6 3 8 6 7 7 10 11 10 10 17 17 15 14 13 9 12 13 13 15 9 9 10 12 7 4 3
Wind_Direction
130 168 219 224 213 48 296 274 277 293 259 251 213 155 163 164 151 145 154 170 165 166 166 168 164 164 156 156 154 153 152 154
98 243 230 219 311 354 325 323 315 295 318 310 261 172 179 137 146 147 161 168 169 163 165 170 166 171 160 158 158 156 158 159
245 262 226 248 264 321 294 286 297 305 279 263 356 16 142 147 154 155 164 169 166 164 166 172 171 175 165 162 164 163 164 167
225 247 38 295 264 249 312 288 304 303 312 259 73 122 170 156 163 163 163 160 163 167 168 174 177 177 172 166 168 169 169 173
263 265 301 249 282 257 301 305 303 304 319 299 333 114 96 96 119 153 157 154 155 163 174 177 181 183 176 171 174 173 173 178
251 262 300 233 345 295 29 299 306 332 5 316 323 120 105 83 75 92 135 145 148 153 164 171 186 188 185 179 178 179 176 180
236 265 146 312 1 227 294 286 316 329 4 327 45 109 107 106 76 92 121 139 139 156 159 163 171 188 190 195 186 184 184 184
241 254 325 291 317 303 332 322 314 325 342 24 61 58 136 163 171 166 175 183 168 161 169 161 182 188 176 197 197 194 194 186
289 319 328 301 307 306 313 290 331 308 314 339 51 343 135 281 227 193 181 178 184 178 178 175 186 179 184 181 187 209 194 190
293 313 306 286 310 286 282 272 296 307 295 300 309 311 258 197 239 245 193 191 185 187 186 189 184 183 189 190 189 204 208 184
333 311 284 288 287 281 274 278 285 273 289 289 281 266 268 251 257 202 209 235 191 189 191 192 192 189 188 188 196 199 191 190
292 264 243 259 282 306 274 11 296 289 274 271 249 254 286 272 278 249 220 186 220 189 193 192 196 196 201 189 195 187 188 192
219 233 252 223 260 247 278 311 283 294 288 282 258 258 230 235 231 236 232 209 185 208 184 191 194 194 193 198 188 199 200 183
284 315 249 172 261 289 310 332 311 332 312 300 276 258 257 225 234 213 222 205 210 190 198 192 198 191 198 191 187 205 199 181
303 288 271 209 298 316 321 332 315 312 311 315 323 325 302 275 251 235 230 220 197 192 191 198 192 188 202 196 196 200 186 191
268 285 300 292 285 256 268 283 285 301 311 316 300 294 275 296 247 265 248 218 212 206 205 196 193 189 195 199 210 188 206 194
275 288 324 300 300 305 276 256 281 287 290 291 302 309 323 307 302 216 266 278 222 190 213 200 193 196 200 207 210 214 211 196
270 343 311 301 290 294 291 257 235 255 281 291 300 315 321 329 317 306 235 227 252 230 215 184 209 229 217 197 197 216 195 185
275 294 253 279 278 264 277 279 271 269 268 290 283 294 300 309 312 306 302 235 229 226 226 209 199 145 55 60 85 153 188 195
306 338 296 46 288 187 216 260 279 288 268 265 277 304 311 311 304 300 292 295 232 220 217 213 195 185 210 207 206 216 188 129